• In Hungary
  • List of Countries
  • For 7 days
  • Water Temperature
  • Satellite Maps
  • Weather Map
  • News
  • Weather Widgets
  • user-avatar
    Login

    Hourly Weather Rudka

    Today, 24 October, Wednesday

    Time Temperature Precipitation Wind Pressure Humidity
    00:00 +5°C° 0.4 mm 6 mps 730 mmHg 81%
    01:00 +4°C° 0.4 mm 6 mps 730 mmHg 80%
    02:00 +4°C° 0.3 mm 6 mps 730 mmHg 79%
    03:00 +4°C° 0.3 mm 6 mps 730 mmHg 79%
    04:00 +4°C° 0.3 mm 7 mps 730 mmHg 78%
    05:00 +3°C° 0.1 mm 7 mps 731 mmHg 76%
    06:00 +3°C° 0.1 mm 7 mps 731 mmHg 73%
    07:00 +2°C° 0.1 mm 8 mps 732 mmHg 71%
    08:00 +2°C° 0.1 mm 9 mps 733 mmHg 69%
    09:00 +3°C° 0.1 mm 10 mps 733 mmHg 66%
    10:00 +3°C° 0.1 mm 11 mps 734 mmHg 64%
    11:00 +4°C° 0.1 mm 11 mps 734 mmHg 64%
    12:00 +4°C° 0.1 mm 11 mps 735 mmHg 65%
    13:00 +4°C° 0.1 mm 11 mps 735 mmHg 65%
    14:00 +4°C° 0.4 mm 11 mps 736 mmHg 67%
    15:00 +4°C° 0.4 mm 11 mps 737 mmHg 68%
    16:00 +3°C° 0.4 mm 11 mps 737 mmHg 70%
    17:00 +3°C° 0.3 mm 10 mps 738 mmHg 71%
    18:00 +3°C° 0.3 mm 9 mps 739 mmHg 71%
    19:00 +3°C° 0.3 mm 9 mps 740 mmHg 71%
    20:00 +4°C° 0.1 mm 8 mps 740 mmHg 72%
    21:00 +4°C° 0.1 mm 7 mps 741 mmHg 72%
    22:00 +3°C° 0.1 mm 6 mps 741 mmHg 73%
    23:00 +3°C° 0 mm 6 mps 741 mmHg 75%

    Tomorrow, 25 October, Thursday

    Time Temperature Precipitation Wind Pressure Humidity
    00:00 +3°C° 0 mm 5 mps 742 mmHg 77%
    01:00 +2°C° 0 mm 5 mps 742 mmHg 80%
    02:00 +3°C° 0 mm 4 mps 742 mmHg 79%
    03:00 +3°C° 0 mm 4 mps 741 mmHg 79%
    04:00 +3°C° 0 mm 4 mps 741 mmHg 79%
    05:00 +3°C° 0.1 mm 4 mps 740 mmHg 79%
    06:00 +3°C° 0.1 mm 4 mps 740 mmHg 80%
    07:00 +3°C° 0.1 mm 4 mps 739 mmHg 80%
    08:00 +2°C° 0.9 mm 5 mps 738 mmHg 83%
    09:00 +3°C° 0.9 mm 5 mps 737 mmHg 85%
    10:00 +3°C° 0.9 mm 6 mps 736 mmHg 88%
    11:00 +5°C° 0.4 mm 6 mps 735 mmHg 83%
    12:00 +6°C° 0.4 mm 7 mps 735 mmHg 79%
    13:00 +9°C° 0.4 mm 8 mps 734 mmHg 74%
    14:00 +7°C° 0.1 mm 8 mps 734 mmHg 73%
    15:00 +8°C° 0.1 mm 7 mps 734 mmHg 73%
    16:00 +6°C° 0.1 mm 7 mps 734 mmHg 72%
    17:00 +6°C° 0 mm 7 mps 735 mmHg 75%
    18:00 +5°C° 0 mm 6 mps 736 mmHg 77%
    19:00 +5°C° 0 mm 6 mps 736 mmHg 79%
    20:00 +6°C° 0 mm 5 mps 737 mmHg 80%
    21:00 +6°C° 0 mm 5 mps 737 mmHg 81%
    22:00 +5°C° 0 mm 5 mps 738 mmHg 82%
    23:00 +5°C° 0 mm 5 mps 738 mmHg 83%

    Day after tomorrow, 26 October, Friday

    Time Temperature Precipitation Wind Pressure Humidity
    00:00 +5°C° 0 mm 5 mps 738 mmHg 84%
    01:00 +5°C° 0 mm 5 mps 738 mmHg 85%
    02:00 +5°C° 0 mm 5 mps 739 mmHg 86%
    03:00 +3°C° 0 mm 5 mps 739 mmHg 88%
    04:00 +3°C° 0 mm 5 mps 739 mmHg 89%
    05:00 +3°C° 0 mm 5 mps 739 mmHg 90%
    06:00 +3°C° 0 mm 5 mps 739 mmHg 91%
    07:00 +5°C° 0 mm 4 mps 739 mmHg 91%
    08:00 +5°C° 0.1 mm 5 mps 740 mmHg 87%
    09:00 +6°C° 0.1 mm 5 mps 740 mmHg 82%
    10:00 +7°C° 0.1 mm 6 mps 740 mmHg 78%
    11:00 +8°C° 0 mm 6 mps 740 mmHg 75%
    12:00 +8°C° 0 mm 6 mps 739 mmHg 72%
    13:00 +8°C° 0 mm 6 mps 739 mmHg 70%
    14:00 +8°C° 0 mm 5 mps 739 mmHg 71%
    15:00 +8°C° 0 mm 5 mps 738 mmHg 73%
    16:00 +7°C° 0 mm 4 mps 738 mmHg 74%
    17:00 +8°C° 0.5 mm 5 mps 737 mmHg 78%
    18:00 +8°C° 0.5 mm 6 mps 736 mmHg 81%
    19:00 +8°C° 0.5 mm 7 mps 736 mmHg 85%
    20:00 +8°C° 0.1 mm 7 mps 735 mmHg 85%
    21:00 +8°C° 0.1 mm 7 mps 735 mmHg 84%
    22:00 +8°C° 0.1 mm 7 mps 734 mmHg 84%
    23:00 +8°C° 0.2 mm 7 mps 734 mmHg 83%

    27 October, Saturday

    Time Temperature Precipitation Wind Pressure Humidity
    00:00 +8°C° 0.2 mm 7 mps 734 mmHg 83%
    01:00 +7°C° 0.2 mm 8 mps 734 mmHg 82%
    02:00 +6°C° 0.4 mm 8 mps 734 mmHg 80%
    03:00 +5°C° 0.4 mm 8 mps 734 mmHg 79%
    04:00 +4°C° 0.4 mm 8 mps 734 mmHg 77%
    05:00 +4°C° 0.3 mm 7 mps 735 mmHg 78%
    06:00 +4°C° 0.3 mm 7 mps 736 mmHg 80%
    07:00 +4°C° 0.3 mm 6 mps 736 mmHg 81%
    08:00 +5°C° 0.2 mm 7 mps 737 mmHg 78%
    09:00 +5°C° 0.2 mm 7 mps 738 mmHg 74%
    10:00 +6°C° 0.2 mm 7 mps 739 mmHg 71%
    11:00 +6°C° 0.2 mm 7 mps 739 mmHg 68%
    12:00 +6°C° 0.2 mm 7 mps 740 mmHg 65%
    13:00 +6°C° 0.2 mm 7 mps 741 mmHg 63%
    14:00 +5°C° 0.1 mm 6 mps 741 mmHg 66%
    15:00 +6°C° 0.1 mm 5 mps 742 mmHg 69%
    16:00 +5°C° 0.1 mm 4 mps 742 mmHg 72%
    17:00 +4°C° 0 mm 3 mps 743 mmHg 75%
    18:00 +4°C° 0 mm 3 mps 744 mmHg 79%
    19:00 +3°C° 0 mm 3 mps 744 mmHg 82%
    20:00 +3°C° 0 mm 3 mps 745 mmHg 83%
    21:00 +3°C° 0 mm 2 mps 745 mmHg 83%
    22:00 +3°C° 0 mm 2 mps 746 mmHg 84%
    23:00 +3°C° 0 mm 2 mps 746 mmHg 84%

    28 October, Sunday

    Time Temperature Precipitation Wind Pressure Humidity
    00:00 +3°C° 0 mm 2 mps 747 mmHg 84%
    01:00 +2°C° 0 mm 2 mps 747 mmHg 85%
    02:00 +3°C° 0 mm 1 mps 747 mmHg 85%
    03:00 +3°C° 0 mm 1 mps 748 mmHg 86%
    04:00 +3°C° 0 mm 1 mps 748 mmHg 87%
    05:00 +3°C° 0 mm 1 mps 748 mmHg 87%
    06:00 +3°C° 0 mm 1 mps 749 mmHg 87%
    07:00 +3°C° 0 mm 1 mps 749 mmHg 87%
    08:00 +4°C° 0 mm 1 mps 750 mmHg 82%
    09:00 +5°C° 0 mm 1 mps 750 mmHg 76%
    10:00 +5°C° 0 mm 2 mps 750 mmHg 71%
    11:00 +6°C° 0 mm 2 mps 750 mmHg 68%
    12:00 +6°C° 0 mm 2 mps 751 mmHg 66%
    13:00 +7°C° 0 mm 2 mps 751 mmHg 63%
    14:00 +6°C° 0 mm 2 mps 751 mmHg 66%
    15:00 +6°C° 0 mm 2 mps 751 mmHg 70%
    16:00 +5°C° 0 mm 2 mps 751 mmHg 73%
    17:00 +4°C° 0 mm 3 mps 751 mmHg 74%
    18:00 +4°C° 0 mm 3 mps 751 mmHg 76%
    19:00 +3°C° 0 mm 3 mps 751 mmHg 77%
    20:00 +3°C° 0.1 mm 4 mps 751 mmHg 77%
    21:00 +3°C° 0.1 mm 4 mps 751 mmHg 78%
    22:00 +3°C° 0.1 mm 4 mps 751 mmHg 78%
    23:00 +2°C° 0.2 mm 5 mps 751 mmHg 78%

    29 October, Monday

    Time Temperature Precipitation Wind Pressure Humidity
    00:00 +2°C° 0.2 mm 5 mps 751 mmHg 78%
    01:00 +2°C° 0.2 mm 5 mps 751 mmHg 78%
    02:00 +2°C° 0.3 mm 6 mps 751 mmHg 79%
    03:00 +2°C° 0.3 mm 6 mps 750 mmHg 79%
    04:00 +2°C° 0.3 mm 6 mps 750 mmHg 79%
    05:00 +1°C° 0.3 mm 6 mps 750 mmHg 79%
    06:00 0°C° 0.3 mm 7 mps 750 mmHg 79%
    07:00 0°C° 0.3 mm 7 mps 750 mmHg 79%
    08:00 +2°C° 0.3 mm 7 mps 750 mmHg 77%
    09:00 +1°C° 0.3 mm 8 mps 750 mmHg 76%
    10:00 +1°C° 0.3 mm 8 mps 750 mmHg 74%
    11:00 +1°C° 0.4 mm 8 mps 750 mmHg 75%
    12:00 +1°C° 0.4 mm 8 mps 750 mmHg 75%
    13:00 +1°C° 0.4 mm 8 mps 749 mmHg 76%
    14:00 0°C° 0.2 mm 8 mps 749 mmHg 77%
    15:00 0°C° 0.2 mm 8 mps 749 mmHg 78%
    16:00 0°C° 0.2 mm 7 mps 749 mmHg 78%
    17:00 -1°C° 0.2 mm 7 mps 750 mmHg 79%
    18:00 -1°C° 0.2 mm 7 mps 750 mmHg 79%
    19:00 -1°C° 0.2 mm 7 mps 750 mmHg 79%
    20:00 -1°C° 0 mm 7 mps 751 mmHg 79%
    21:00 -1°C° 0 mm 6 mps 751 mmHg 79%
    22:00 -2°C° 0 mm 6 mps 751 mmHg 79%
    23:00 -2°C° 0 mm 6 mps 751 mmHg 79%

    30 October, Tuesday

    Time Temperature Precipitation Wind Pressure Humidity
    00:00 -2°C° 0 mm 6 mps 752 mmHg 78%
    01:00 -3°C° 0 mm 6 mps 752 mmHg 78%
    02:00 -3°C° 0 mm 6 mps 752 mmHg 78%
    03:00 -3°C° 0 mm 6 mps 752 mmHg 78%
    04:00 -4°C° 0 mm 6 mps 752 mmHg 78%
    05:00 -4°C° 0 mm 6 mps 752 mmHg 77%
    06:00 -4°C° 0 mm 6 mps 752 mmHg 77%
    07:00 -4°C° 0 mm 6 mps 753 mmHg 76%
    08:00 -3°C° 0 mm 6 mps 753 mmHg 73%
    09:00 -2°C° 0 mm 7 mps 753 mmHg 70%
    10:00 -2°C° 0 mm 7 mps 753 mmHg 66%
    11:00 -1°C° 0 mm 7 mps 753 mmHg 65%
    12:00 -1°C° 0 mm 7 mps 753 mmHg 63%
    13:00 0°C° 0 mm 7 mps 753 mmHg 62%
    14:00 -1°C° 0 mm 7 mps 753 mmHg 64%
    15:00 -2°C° 0 mm 7 mps 753 mmHg 67%
    16:00 -2°C° 0 mm 7 mps 752 mmHg 69%
    17:00 -4°C° 0 mm 8 mps 752 mmHg 71%
    18:00 -4°C° 0 mm 8 mps 752 mmHg 74%
    19:00 -4°C° 0 mm 9 mps 752 mmHg 76%
    20:00 -4°C° 0 mm 9 mps 752 mmHg 76%
    21:00 -4°C° 0 mm 9 mps 752 mmHg 75%
    22:00 -5°C° 0 mm 10 mps 752 mmHg 75%
    23:00 -5°C° 0 mm 10 mps 751 mmHg 74%
    Show more